DW6064 Weather Reports


time (UTC)temp
C
wind
direction
speed
KPH
gust
KPH
rain 1hr
cm
rain 24hr
cm
rain mn
cm
humidity
%
barometer
mb
20260508134041 13 206 6.4 16.1 0.00 0.00 0.00 54 1013.8
20260508133540 13 228 6.4 20.9 0.00 0.00 0.00 57 1013.8
20260508133040 12 198 11.3 20.9 0.00 0.00 0.00 53 1013.8
20260508132531 12 234 8.0 27.4 0.00 0.00 0.00 57 1013.8
20260508132027 12 244 6.4 27.4 0.00 0.00 0.00 58 1013.9
20260508131545 11 243 8.0 16.1 0.00 0.00 0.00 61 1014.1
20260508131044 11 184 11.3 19.3 0.00 0.00 0.00 60 1014.1
20260508130542 11 173 9.7 19.3 0.00 0.00 0.00 62 1014.1
20260508130057 11 174 8.0 14.5 0.00 0.00 0.00 61 1014.1
20260508125551 10 191 11.3 14.5 0.00 0.00 0.00 64 1014.2
20260508125026 10 144 9.7 16.1 0.00 0.00 0.00 64 1014.2
20260508124539 10 159 12.9 17.7 0.00 0.00 0.00 66 1014.2
20260508124042 9 167 11.3 16.1 0.00 0.00 0.00 66 1014.2
20260508123531 9 159 12.9 16.1 0.00 0.00 0.00 65 1014.2
20260508123027 9 146 9.7 16.1 0.00 0.00 0.00 67 1014.1
20260508122539 8 171 9.7 14.5 0.00 0.00 0.00 67 1014.2
20260508122042 8 162 9.7 14.5 0.00 0.00 0.00 67 1014.2
20260508121540 8 159 9.7 14.5 0.00 0.00 0.00 68 1014.2
20260508121034 8 161 11.3 11.3 0.00 0.00 0.00 68 1014.1
20260508120525 8 180 8.0 11.3 0.00 0.00 0.00 70 1014.1
20260508120044 8 180 9.7 11.3 0.00 0.00 0.00 70 1014.1
20260508115539 8 190 8.0 12.9 0.00 0.00 0.00 71 1014.0
20260508115035 7 183 9.7 12.9 0.00 0.00 0.00 70 1013.9
20260508114525 7 153 9.7 16.1 0.00 0.00 0.00 71 1013.7
20260508114044 7 153 11.3 12.9 0.00 0.00 0.00 71 1013.7
20260508113539 7 164 8.0 14.5 0.00 0.00 0.00 71 1013.7
20260508113041 6 169 9.7 11.3 0.00 0.00 0.00 72 1013.7
20260508112540 6 169 8.0 9.7 0.00 0.00 0.00 73 1013.7
20260508112034 6 169 9.7 11.3 0.00 0.00 0.00 73 1013.5
20260508111527 6 166 6.4 9.7 0.00 0.00 0.00 75 1013.4
20260508111045 5 167 4.8 9.7 0.00 0.00 0.00 75 1013.5
20260508110537 5 167 4.8 9.7 0.00 0.00 0.00 75 1013.5
20260508110040 5 162 4.8 11.3 0.00 0.00 0.00 75 1013.4
20260508105533 5 147 4.8 14.5 0.00 0.00 0.00 75 1013.4
20260508105028 5 143 8.0 14.5 0.00 0.00 0.00 75 1013.4
20260508104545 5 136 6.4 11.3 0.00 0.00 0.00 76 1013.2
20260508104044 5 150 6.4 8.0 0.00 0.00 0.00 76 1013.2
20260508103542 5 139 4.8 9.7 0.00 0.00 0.00 76 1013.2
20260508103041 5 148 6.4 11.3 0.00 0.00 0.00 76 1013.0
20260508102539 5 140 6.4 11.3 0.00 0.00 0.00 76 1013.0
20260508102036 5 146 6.4 9.7 0.00 0.00 0.00 76 1013.0
20260508101554 5 153 4.8 9.7 0.00 0.00 0.00 76 1013.0
20260508101027 5 142 4.8 8.0 0.00 0.00 0.00 76 1013.0
20260508100541 5 152 4.8 8.0 0.00 0.00 0.00 76 1013.0
20260508100040 5 148 4.8 9.7 0.00 0.00 0.00 76 1012.9
20260508095539 5 161 4.8 9.7 0.00 0.00 0.00 76 1012.9
20260508095040 5 142 4.8 9.7 0.00 0.00 0.00 76 1012.8
20260508094534 5 155 3.2 11.3 0.00 0.00 0.00 75 1012.7
20260508094056 5 153 4.8 11.3 0.00 0.00 0.00 75 1012.6
20260508093527 5 136 4.8 8.0 0.00 0.00 0.00 75 1012.6
20260508093026 5 140 3.2 4.8 0.00 0.00 0.00 75 1012.6
20260508092557 5 140 3.2 6.4 0.00 0.00 0.00 74 1012.7
20260508092036 6 144 3.2 6.4 0.00 0.00 0.00 74 1012.7
20260508091529 6 144 3.2 6.4 0.00 0.00 0.00 74 1012.7
20260508091048 6 144 3.2 6.4 0.00 0.00 0.00 74 1012.7
20260508090547 6 141 4.8 6.4 0.00 0.00 0.00 74 1012.7
20260508090042 6 148 3.2 4.8 0.00 0.00 0.00 74 1012.8
20260508085541 6 140 1.6 4.8 0.00 0.00 0.00 74 1012.9
20260508085043 6 135 1.6 4.8 0.00 0.00 0.00 73 1012.9
20260508084541 6 135 3.2 4.8 0.00 0.00 0.00 73 1012.8
20260508084038 6 135 1.6 3.2 0.00 0.00 0.00 71 1012.8
20260508083533 6 135 0.0 3.2 0.00 0.00 0.00 71 1012.7
20260508083027 6 135 0.0 4.8 0.00 0.00 0.00 70 1012.7
20260508082536 6 135 3.2 4.8 0.00 0.00 0.00 70 1012.7
20260508082029 7 140 3.2 6.4 0.00 0.00 0.00 69 1012.7
20260508081544 7 137 3.2 6.4 0.00 0.00 0.00 69 1012.6
20260508081045 7 129 1.6 4.8 0.00 0.00 0.00 68 1012.5
20260508080537 7 129 1.6 4.8 0.00 0.00 0.00 67 1012.5
20260508075532 7 10 3.2 4.8 0.00 0.00 0.00 66 1012.5
20260508075028 7 10 0.0 0.0 0.00 0.00 0.00 66 1012.5
20260508074539 7 10 0.0 0.0 0.00 0.00 0.00 65 1012.4
20260508074044 7 10 0.0 3.2 0.00 0.00 0.00 65 1012.5
20260508073539 8 10 1.6 4.8 0.00 0.00 0.00 64 1012.4
20260508073042 8 10 1.6 4.8 0.00 0.00 0.00 62 1012.5
20260508072536 8 10 0.0 0.0 0.00 0.00 0.00 62 1012.4
20260508072033 8 10 0.0 4.8 0.00 0.00 0.00 62 1012.5
20260508071524 8 10 1.6 4.8 0.00 0.00 0.00 62 1012.4
20260508071043 8 10 0.0 0.0 0.00 0.00 0.00 61 1012.4
20260508070540 8 10 0.0 0.0 0.00 0.00 0.00 61 1012.4
20260508070035 8 10 0.0 0.0 0.00 0.00 0.00 60 1012.4
20260508065529 8 10 0.0 3.2 0.00 0.00 0.00 59 1012.4
20260508065025 9 10 1.6 3.2 0.00 0.00 0.00 57 1012.4
20260508064539 9 10 0.0 3.2 0.00 0.00 0.00 56 1012.3
20260508064039 9 10 0.0 3.2 0.00 0.00 0.00 55 1012.4
20260508063559 10 10 0.0 1.6 0.00 0.00 0.00 56 1012.5
20260508063058 10 10 0.0 3.2 0.00 0.00 0.00 54 1012.4
20260508062531 10 10 0.0 3.2 0.00 0.00 0.00 53 1012.4
20260508062025 10 10 0.0 4.8 0.00 0.00 0.00 54 1012.5
20260508061602 10 10 1.6 4.8 0.00 0.00 0.00 53 1012.4
20260508061041 10 10 1.6 8.0 0.00 0.00 0.00 52 1012.4
20260508060559 10 10 1.6 9.7 0.00 0.00 0.00 52 1012.4
20260508060041 10 343 3.2 17.7 0.00 0.00 0.00 51 1012.3
20260508055535 11 330 6.4 17.7 0.00 0.00 0.00 51 1012.3
20260508055031 11 313 4.8 9.7 0.00 0.00 0.00 51 1012.3
20260508054524 11 332 4.8 12.9 0.00 0.00 0.00 51 1012.3
20260508054045 11 310 3.2 12.9 0.00 0.00 0.00 51 1012.3
20260508053543 11 315 4.8 16.1 0.00 0.00 0.00 50 1012.3
20260508053103 11 306 6.4 25.7 0.00 0.00 0.00 49 1012.3
20260508052540 11 339 9.7 25.7 0.00 0.00 0.00 48 1012.2
20260508052040 11 300 8.0 25.7 0.00 0.00 0.00 49 1012.2
20260508051534 11 336 14.5 25.7 0.00 0.00 0.00 49 1012.1
20260508051026 11 296 14.5 25.7 0.00 0.00 0.00 50 1012.2
20260508050544 11 342 8.0 14.5 0.00 0.00 0.00 50 1012.2
20260508050105 11 302 6.4 14.5 0.00 0.00 0.00 51 1012.2
20260508045601 12 298 8.0 20.9 0.00 0.00 0.00 50 1012.2
20260508045100 12 330 12.9 20.9 0.00 0.00 0.00 49 1012.0
20260508044534 12 319 9.7 19.3 0.00 0.00 0.00 49 1011.9
20260508044031 12 340 4.8 12.9 0.00 0.00 0.00 49 1011.7
20260508043525 12 310 3.2 19.3 0.00 0.00 0.00 49 1011.7
20260508043103 12 313 8.0 19.3 0.00 0.00 0.00 47 1011.6
20260508042535 12 306 8.0 19.3 0.00 0.00 0.00 47 1011.4
20260508042056 12 292 4.8 12.9 0.00 0.00 0.00 47 1011.3
20260508041529 12 321 6.4 12.9 0.00 0.00 0.00 46 1011.3
20260508041027 12 315 4.8 12.9 0.00 0.00 0.00 46 1011.2
20260508040544 12 329 6.4 12.9 0.00 0.00 0.00 46 1011.2
20260508040039 12 298 4.8 22.5 0.00 0.00 0.00 45 1011.1
20260508035541 13 308 8.0 22.5 0.00 0.00 0.00 45 1011.0
20260508035042 13 279 9.7 22.5 0.00 0.00 0.00 43 1010.9
20260508034533 13 288 8.0 20.9 0.00 0.00 0.00 43 1010.8
20260508034027 13 271 11.3 22.5 0.00 0.00 0.00 44 1010.8
20260508033544 13 295 12.9 24.1 0.00 0.00 0.00 43 1010.7
20260508033041 13 221 9.7 24.1 0.00 0.00 0.00 44 1010.6
20260508032541 13 281 9.7 24.1 0.00 0.00 0.00 44 1010.6
20260508032040 13 310 8.0 17.7 0.00 0.00 0.00 44 1010.6
20260508031530 12 288 8.0 19.3 0.00 0.00 0.00 44 1010.5
20260508031026 12 288 6.4 19.3 0.00 0.00 0.00 45 1010.4
20260508030543 12 264 8.0 17.7 0.00 0.00 0.00 45 1010.4
20260508030044 12 278 6.4 12.9 0.00 0.00 0.00 46 1010.4
20260508025541 12 256 6.4 11.3 0.00 0.00 0.00 46 1010.3
20260508025042 12 271 6.4 11.3 0.00 0.00 0.00 47 1010.3
20260508024538 12 258 4.8 9.7 0.00 0.00 0.00 47 1010.4
20260508024039 13 251 4.8 9.7 0.00 0.00 0.00 45 1010.3
20260508023533 13 265 3.2 9.7 0.00 0.00 0.00 47 1010.3
20260508023027 13 221 3.2 11.3 0.00 0.00 0.00 45 1010.2
20260508022543 13 261 4.8 11.3 0.00 0.00 0.00 46 1010.3
20260508022041 13 257 4.8 8.0 0.00 0.00 0.00 46 1010.2
20260508021530 13 252 4.8 9.7 0.00 0.00 0.00 45 1010.2
20260508021048 13 247 4.8 6.4 0.00 0.00 0.00 46 1010.2
20260508020542 13 254 3.2 9.7 0.00 0.00 0.00 46 1010.1
20260508020042 13 257 4.8 11.3 0.00 0.00 0.00 46 1010.0
20260508015539 13 251 4.8 11.3 0.00 0.00 0.00 45 1010.0
20260508015035 13 269 3.2 4.8 0.00 0.00 0.00 46 1010.0
20260508014525 14 269 1.6 4.8 0.00 0.00 0.00 45 1010.0
20260508014043 14 269 1.6 6.4 0.00 0.00 0.00 44 1009.9
20260508013600 14 269 1.6 6.4 0.00 0.00 0.00 47 1009.8
20260508013035 14 279 3.2 6.4 0.00 0.00 0.00 45 1009.7
20260508012527 15 273 3.2 6.4 0.00 0.00 0.00 45 1009.6
20260508012045 15 277 1.6 8.0 0.00 0.00 0.00 45 1009.6
20260508011541 15 275 4.8 8.0 0.00 0.00 0.00 43 1009.5
20260508011038 15 258 4.8 6.4 0.00 0.00 0.00 41 1009.5
20260508010540 15 257 3.2 6.4 0.00 0.00 0.00 42 1009.4
20260508010059 15 250 1.6 6.4 0.00 0.00 0.00 41 1009.2
20260508005533 15 279 1.6 6.4 0.00 0.00 0.00 41 1009.2
20260508005024 16 264 1.6 6.4 0.00 0.00 0.00 41 1009.1
20260508004540 16 263 3.2 6.4 0.00 0.00 0.00 40 1009.1
20260508004037 16 282 3.2 6.4 0.00 0.00 0.00 40 1009.0
20260508003531 16 289 3.2 8.0 0.00 0.00 0.00 40 1009.0
20260508003049 16 299 4.8 12.9 0.00 0.00 0.00 39 1008.9
20260508002540 16 259 6.4 14.5 0.00 0.00 0.00 38 1008.8
20260508002033 16 254 3.2 16.1 0.00 0.00 0.00 38 1008.8
20260508001525 16 279 9.7 17.7 0.00 0.00 0.00 38 1008.7
20260508001105 17 241 11.3 17.7 0.00 0.00 0.00 37 1008.7
20260508000541 17 269 8.0 16.1 0.00 0.00 0.00 38 1008.6
20260508000041 17 288 3.2 14.5 0.00 0.00 0.00 38 1008.5
20260507235533 17 310 6.4 12.9 0.00 0.00 0.00 38 1008.4
20260507235024 17 303 4.8 16.1 0.00 0.00 0.00 38 1008.4
20260507234542 17 280 8.0 16.1 0.00 0.00 0.00 35 1008.4
20260507234059 17 296 6.4 17.7 0.00 0.00 0.00 36 1008.4
20260507233526 17 319 11.3 17.7 0.00 0.00 0.00 36 1008.3
20260507233044 18 271 8.0 17.7 0.00 0.00 0.00 35 1008.4
20260507232534 18 261 8.0 16.1 0.00 0.00 0.00 35 1008.3
20260507232027 18 268 8.0 22.5 0.00 0.00 0.00 34 1008.2
20260507231604 18 275 11.3 24.1 0.00 0.00 0.00 33 1008.2
20260507231103 18 309 12.9 24.1 0.00 0.00 0.00 33 1008.1
20260507230534 18 326 11.3 35.4 0.00 0.00 0.00 34 1008.0
20260507230029 18 313 16.1 35.4 0.00 0.00 0.00 33 1008.0
20260507225605 18 321 8.0 24.1 0.00 0.00 0.00 34 1007.8
20260507225037 18 336 11.3 27.4 0.00 0.00 0.00 33 1007.8
20260507224531 18 284 16.1 27.4 0.00 0.00 0.00 31 1007.7
20260507224026 19 307 8.0 24.1 0.00 0.00 0.00 34 1007.7
20260507223542 19 318 9.7 24.1 0.00 0.00 0.00 33 1007.7
20260507223042 19 328 6.4 24.1 0.00 0.00 0.00 33 1007.6
20260507222538 20 319 11.3 24.1 0.00 0.00 0.00 34 1007.6
20260507222033 20 288 12.9 24.1 0.00 0.00 0.00 32 1007.5
20260507221526 20 355 11.3 22.5 0.00 0.00 0.00 32 1007.5
20260507221104 20 323 12.9 22.5 0.00 0.00 0.00 31 1007.5
20260507220600 20 334 12.9 22.5 0.00 0.00 0.00 32 1007.4
20260507220038 20 332 9.7 17.7 0.00 0.00 0.00 32 1007.4
20260507215530 21 325 6.4 19.3 0.00 0.03 0.00 29 1007.3
20260507215026 21 304 11.3 29.0 0.00 0.03 0.00 31 1007.3
20260507214542 21 328 17.7 29.0 0.00 0.03 0.00 30 1007.3
20260507214042 21 330 9.7 20.9 0.00 0.03 0.00 31 1007.2
20260507213534 22 299 9.7 19.3 0.00 0.03 0.00 29 1007.1
20260507213027 22 340 11.3 22.5 0.00 0.03 0.00 30 1007.0
20260507212543 22 342 6.4 24.1 0.00 0.03 0.00 30 1007.2
20260507212043 22 301 12.9 24.1 0.00 0.03 0.00 29 1007.1
20260507211536 22 303 6.4 20.9 0.00 0.03 0.00 29 1007.2
20260507211037 22 325 6.4 20.9 0.00 0.03 0.00 29 1007.3
20260507210555 22 300 9.7 29.0 0.00 0.03 0.00 31 1007.1
20260507210027 22 239 14.5 29.0 0.00 0.03 0.00 29 1007.1
20260507205542 22 282 9.7 19.3 0.00 0.03 0.00 28 1007.1
20260507205041 22 241 9.7 17.7 0.00 0.03 0.00 29 1007.1
20260507204531 22 329 8.0 25.7 0.00 0.03 0.00 29 1007.4
20260507204025 22 323 12.9 25.7 0.00 0.03 0.00 28 1007.4
20260507203543 22 321 11.3 17.7 0.00 0.03 0.00 30 1007.4
20260507203037 22 318 3.2 22.5 0.00 0.03 0.00 30 1007.4
20260507202528 22 332 14.5 22.5 0.00 0.03 0.00 30 1007.4
20260507202047 22 286 1.6 16.1 0.00 0.03 0.00 31 1007.4
20260507201545 22 275 8.0 16.1 0.00 0.03 0.00 29 1007.4
20260507201043 22 252 9.7 16.1 0.00 0.03 0.00 30 1007.5
20260507200542 22 190 4.8 12.9 0.00 0.03 0.00 31 1007.5
20260507200037 22 280 6.4 14.5 0.00 0.03 0.00 32 1007.5
20260507195530 21 319 4.8 9.7 0.00 0.03 0.00 31 1007.6
20260507195025 21 296 3.2 11.3 0.00 0.03 0.00 31 1007.5
20260507194604 22 236 1.6 11.3 0.00 0.03 0.00 29 1007.7
20260507194036 22 342 6.4 16.1 0.00 0.03 0.00 33 1007.8
20260507193530 22 261 6.4 20.9 0.00 0.03 0.00 33 1007.9
20260507193026 22 257 6.4 22.5 0.00 0.03 0.00 31 1008.0
20260507192542 22 274 11.3 22.5 0.00 0.03 0.00 32 1008.1
20260507192036 22 265 8.0 19.3 0.00 0.03 0.00 35 1008.2
20260507191530 22 248 6.4 19.3 0.00 0.03 0.00 34 1008.1
20260507191106 21 298 8.0 19.3 0.00 0.03 0.00 32 1008.3
20260507190538 21 245 11.3 19.3 0.00 0.03 0.00 34 1008.3
20260507190041 21 360 6.4 19.3 0.00 0.03 0.00 29 1008.3
20260507185538 21 32 9.7 19.3 0.00 0.03 0.00 32 1008.4
20260507185035 21 167 6.4 16.1 0.00 0.03 0.00 29 1008.4
20260507184529 21 277 6.4 22.5 0.00 0.03 0.00 35 1008.5
20260507184032 21 323 11.3 22.5 0.00 0.03 0.00 35 1008.6
20260507183526 21 281 4.8 16.1 0.00 0.03 0.00 32 1008.6
20260507183043 21 240 4.8 8.0 0.00 0.03 0.00 35 1008.6
20260507182601 21 294 1.6 14.5 0.00 0.03 0.00 36 1008.6
20260507182036 21 224 3.2 14.5 0.00 0.03 0.00 32 1008.7
20260507181530 21 350 8.0 12.9 0.00 0.03 0.00 36 1008.8
20260507181027 20 338 4.8 8.0 0.00 0.03 0.00 34 1008.8
20260507180540 20 230 1.6 11.3 0.00 0.03 0.00 38 1008.9
20260507180033 20 252 3.2 14.5 0.00 0.03 0.00 36 1009.0
20260507175525 20 275 8.0 14.5 0.00 0.03 0.00 34 1009.0
20260507175047 20 265 3.2 11.3 0.00 0.03 0.00 36 1009.1
20260507174541 19 297 4.8 11.3 0.00 0.03 0.00 32 1009.2
20260507174042 19 244 6.4 11.3 0.00 0.03 0.00 33 1009.3
20260507173600 20 284 1.6 11.3 0.00 0.03 0.00 34 1009.3
20260507173035 20 144 3.2 11.3 0.00 0.03 0.00 35 1009.4
20260507172525 20 76 3.2 16.1 0.00 0.03 0.00 31 1009.6
20260507172038 19 340 1.6 16.1 0.00 0.03 0.00 34 1009.6
20260507171542 19 360 8.0 12.9 0.00 0.03 0.00 36 1009.7
20260507171041 19 54 1.6 12.9 0.00 0.03 0.00 33 1009.9
20260507170534 19 294 4.8 14.5 0.00 0.03 0.00 35 1009.9
20260507170029 19 342 4.8 17.7 0.00 0.03 0.00 37 1010.0
20260507165544 19 273 4.8 19.3 0.00 0.03 0.00 37 1010.1
20260507165031 19 317 12.9 19.3 0.00 0.03 0.00 35 1010.3
20260507164537 18 65 1.6 16.1 0.00 0.03 0.00 34 1010.3
20260507164103 19 13 8.0 19.3 0.00 0.03 0.00 39 1010.4
20260507163540 18 347 8.0 19.3 0.00 0.03 0.00 39 1010.4
20260507163040 18 5 8.0 20.9 0.00 0.03 0.00 34 1010.4
20260507162539 19 340 11.3 20.9 0.00 0.03 0.00 39 1010.5
20260507162040 18 349 4.8 16.1 0.00 0.03 0.00 39 1010.6
20260507161532 18 311 8.0 20.9 0.00 0.03 0.00 35 1010.6
20260507161026 18 321 9.7 20.9 0.00 0.03 0.00 39 1010.6
20260507160538 18 246 11.3 20.9 0.00 0.03 0.00 35 1010.7
20260507160039 18 250 8.0 16.1 0.00 0.03 0.00 37 1010.7
20260507155532 18 57 4.8 19.3 0.00 0.03 0.00 38 1010.8
20260507155053 17 295 3.2 19.3 0.00 0.03 0.00 37 1010.9
20260507154524 18 284 8.0 19.3 0.00 0.03 0.00 34 1010.9
20260507154104 17 321 9.7 16.1 0.00 0.03 0.00 39 1010.9
20260507153600 17 308 8.0 16.1 0.00 0.03 0.00 40 1011.0
20260507153039 17 346 8.0 19.3 0.00 0.03 0.00 38 1011.0
20260507152534 17 290 11.3 20.9 0.00 0.03 0.00 40 1011.0
20260507152033 17 302 6.4 27.4 0.00 0.03 0.00 39 1011.2
20260507151526 17 306 16.1 27.4 0.00 0.03 0.00 39 1011.3
20260507151103 16 331 11.3 20.9 0.00 0.03 0.00 43 1011.4
20260507150541 16 334 6.4 17.7 0.00 0.03 0.00 46 1011.5
20260507150040 16 22 1.6 14.5 0.00 0.03 0.00 44 1011.5
20260507145534 16 10 3.2 14.5 0.00 0.23 0.00 42 1011.7
20260507145030 16 5 4.8 14.5 0.00 0.23 0.00 47 1011.7
20260507144605 16 20 3.2 19.3 0.00 0.23 0.00 41 1011.8
20260507144045 16 311 12.9 20.9 0.00 0.23 0.00 46 1011.9
20260507143543 15 298 8.0 22.5 0.00 0.23 0.00 43 1012.0
20260507143043 15 329 6.4 22.5 0.00 0.23 0.00 46 1012.0
20260507142541 15 20 3.2 9.7 0.00 0.23 0.00 42 1012.1
20260507142042 15 343 3.2 9.7 0.00 0.23 0.00 45 1012.1
20260507141537 15 5 0.0 9.7 0.00 0.23 0.00 43 1012.0
20260507141032 14 360 3.2 9.7 0.00 0.23 0.00 45 1012.2
20260507140552 14 342 3.2 6.4 0.00 0.23 0.00 45 1012.2
20260507140027 13 257 1.6 6.4 0.00 0.23 0.00 46 1012.3
20260507135547 13 278 4.8 8.0 0.00 0.43 0.00 43 1012.4
20260507135046 13 286 1.6 8.0 0.00 0.43 0.00 47 1012.6
20260507134538 13 5 3.2 8.0 0.00 0.43 0.00 48 1012.6